Flag for Germany Weather past 2 weeks in Greven, North Rhine-Westphalia, Germany

Now
50 °F

Passing clouds.


Feels Like: 44 °F
Forecast: 44 / 52 °F
Wind: 16 mph from West

Location: Muenster / Osnabrueck

Current Time: Oct 21, 2014 at 9:12:04 PM

Latest Report: Oct 21, 2014 at 8:20 PM


Visibility: N/A

Pressure: 29.53 "Hg

Humidity: 82%

Dew point: 45 °F

Location of GrevenLocation

Historic Weather in Greven — Graph

°F

Greven temperature yesterday

Maximum temperature yesterday: 63 °F (at 3:50 PM)
Minimum temperature yesterday: 55 °F (at 11:50 PM)
Average temperature yesterday: 59 °F

Past Weeks' High & Low Weather Summary

 TemperatureHumidityPressure
High73 °F (Oct 19, 1:50 PM)100% (Oct 7, 5:20 AM)30.09 "Hg (Oct 7, 5:20 AM)
Low45 °F (Oct 11, 7:20 AM)52% (Oct 14, 2:20 PM)29.45 "Hg (Oct 21, 4:20 PM)
Average57 °F88%29.81 "Hg
* Reported Oct 6 7:20 PM — Oct 21 7:50 PM, Greven, Weather by CustomWeather, © 2014

Note: Actual official high and low records may vary slightly from our data, if they occured in-between our weather recording intervals... More about our weather records

Advertising

Greven weather history for previous 24 hours

 ConditionsComfort  
Time TempWeatherWind HumidityBarometerVisibility
7:50 PM
Oct 21
50 °FPassing clouds.21 mph88%29.53 "HgN/A
7:20 PM50 °FScattered clouds.16 mph88%29.50 "HgN/A
6:50 PM52 °FPartly sunny.16 mph88%29.50 "HgN/A
6:20 PM52 °FBroken clouds.14 mph94%29.50 "HgN/A
5:50 PM52 °FBroken clouds.12 mph94%29.47 "HgN/A
5:20 PM52 °FLight rain. Partly sunny.20 mph94%29.45 "Hg6 mi
4:50 PM54 °FLight rain. Partly sunny.12 mph94%29.45 "Hg6 mi
4:20 PM54 °FRain. Partly sunny.12 mph94%29.45 "Hg4 mi
3:50 PM54 °FLight rain. Partly sunny.13 mph94%29.47 "Hg4 mi
3:20 PM54 °FLight rain. Partly sunny.13 mph94%29.47 "Hg2 mi
2:50 PM54 °FLight rain. Broken clouds.15 mph94%29.50 "Hg2 mi
2:20 PM54 °FLight rain. Partly sunny.15 mph94%29.53 "Hg4 mi
1:50 PM54 °FLight rain. Partly sunny.16 mph88%29.53 "Hg4 mi
1:20 PM55 °FLight rain. Partly sunny.15 mph82%29.56 "HgN/A
12:50 PM55 °FLight rain. Partly sunny.15 mph82%29.59 "HgN/A
12:20 PM55 °FPartly sunny.14 mph82%29.62 "HgN/A
11:50 AM55 °FPartly sunny.12 mph82%29.62 "HgN/A
11:20 AM55 °FLight rain. Partly sunny.12 mph82%29.65 "Hg6 mi
10:50 AM55 °FLight rain. Partly sunny.14 mph82%29.65 "HgN/A
10:20 AM55 °FPartly sunny.13 mph82%29.68 "HgN/A
9:50 AM55 °FPartly sunny.13 mph82%29.71 "HgN/A
9:20 AM54 °FPartly sunny.10 mph94%29.71 "HgN/A
8:50 AM54 °FLight rain. Passing clouds.9 mph94%29.74 "Hg5 mi
8:20 AM54 °FPassing clouds.9 mph94%29.74 "HgN/A
7:50 AM54 °FPassing clouds.9 mph88%29.74 "HgN/A
7:20 AM54 °FPassing clouds.9 mph88%29.77 "HgN/A
6:50 AM54 °FPassing clouds.8 mph88%29.77 "HgN/A
6:20 AM54 °FPartly cloudy.8 mph94%29.77 "HgN/A
5:50 AM54 °FPassing clouds.8 mph94%29.77 "HgN/A
5:20 AM55 °FPassing clouds.8 mph88%29.80 "HgN/A
4:50 AM55 °FPassing clouds.9 mph88%29.80 "HgN/A
4:20 AM55 °FPassing clouds.9 mph88%29.83 "HgN/A
3:50 AM55 °FPartly cloudy.10 mph88%29.83 "HgN/A
3:20 AM55 °FPartly cloudy.8 mph88%29.83 "HgN/A
2:50 AM54 °FPassing clouds.8 mph94%29.86 "HgN/A
2:20 AM54 °FPartly cloudy.7 mph94%29.86 "HgN/A
1:50 AM54 °FPartly cloudy.7 mph88%29.86 "HgN/A
1:20 AM55 °FClear.7 mph82%29.86 "Hg10 mi
12:50 AM55 °FClear.7 mph82%29.89 "Hg10 mi
12:20 AM55 °FPartly cloudy.7 mph82%29.89 "HgN/A
11:50 PM
Oct 20
55 °FClear.7 mph82%29.89 "Hg10 mi
11:20 PM57 °FClear.7 mph82%29.89 "Hg10 mi
10:50 PM57 °FClear.7 mph82%29.89 "Hg10 mi
10:20 PM57 °FPartly cloudy.7 mph82%29.89 "HgN/A
9:50 PM57 °FPassing clouds.9 mph77%29.92 "HgN/A
9:20 PM57 °FPassing clouds.9 mph77%29.92 "HgN/A
Weather by CustomWeather, © 2014

See weather overviewHow to use our weather pages